Weather observations for the past three days for
Baker Municipal Airport
Metric (Imperial)
Date Time (pdt) Wind (kph) Vis. (km) Weather Sky Cond. Temperature (ºC) Relative Humidity Wind Chill (°C) Heat Index (°C) Pressure Precipitation (cm)
Air Dwpt 6 hour altimeter (cm) sea level (mb) 1 hr 3 hr 6 hr
Max. Min.
21 07:53 SW 6 16.09 Fair CLR 17.2 7.2 52% 76.25 1013.9
21 06:53 N 6 16.09 Fair CLR 12.2 6.7 69% 76.23 1014.1
21 05:53 Calm 16.09 Fair CLR 8.3 5 80% 76.23 1014.1
21 04:53 Calm 16.09 Fair CLR 8.3 4.4 16.1 7.2 77% 76.2 1013.5
21 03:53 Calm 16.09 Fair CLR 7.8 3.3 73% 76.17 1013.4
21 02:53 SW 7 16.09 Fair CLR 10.6 4.4 66% 76.17 1013.2
21 01:53 S 7 16.09 Fair CLR 11.7 4.4 61% 76.17 1013.2
21 00:53 S 7 16.09 Fair CLR 11.7 5 64% 76.17 1013.1
20 23:53 Calm 16.09 Fair CLR 15.6 5.6 52% 76.17 1012.8
20 22:53 SE 7 16.09 Fair CLR 13.9 6.1 31.1 13.9 60% 76.17 1013.4
20 21:53 NW 15 16.09 Fair CLR 18.3 6.1 45% 76.15 1012.9
20 20:53 NW 15 16.09 Fair CLR 19.4 7.2 45% 76.1 1012.5
20 19:53 N 20 G 41 16.09 Fair CLR 25 7.2 32% 25 76.07 1011.8
20 18:53 NE 11 16.09 Fair CLR 26.7 -1.1 16% 26 76.02 1011.3
20 17:53 E 7 16.09 Fair CLR 29.4 2.2 17% 28 76.02 1011.4
20 16:53 Vrbl 7 16.09 Fair CLR 31.1 -1.7 32.2 23.9 12% 29 76.05 1011.8
20 15:53 Calm 16.09 Fair CLR 31.1 -2.2 11% 29 76.1 1012.0
20 14:53 NW 11 16.09 Fair CLR 28.9 1.7 17% 27 76.12 1013.0
20 13:53 NW 9 16.09 Fair CLR 28.3 1.1 17% 27 76.17 1013.5
20 12:53 NW 13 16.09 Fair CLR 27.8 2.8 20% 27 76.23 1014.2
20 11:53 NE 7 16.09 Fair CLR 27.2 2.2 20% 26 76.28 1014.9
20 10:53 NE 6 16.09 Fair CLR 23.9 4.4 23.9 6.1 28% 25 76.33 1015.7
20 09:53 NW 7 16.09 Fair CLR 21.1 4.4 34% 76.35 1016.0
20 08:53 Calm 16.09 Fair CLR 18.3 5 42% 76.35 1016.1
20 07:53 Calm 16.09 Fair CLR 14.4 5 53% 76.35 1015.9
20 06:53 Calm 16.09 Fair CLR 10.6 3.9 64% 76.33 1015.7
20 05:53 Calm 16.09 Fair CLR 7.8 3.9 77% 76.3 1015.5
20 04:53 Calm 16.09 Fair CLR 7.2 2.8 12.8 7.2 74% 76.3 1015.4
20 03:53 Calm 16.09 Fair CLR 8.9 2.8 66% 76.28 1015.2
20 02:53 Calm 16.09 Fair CLR 7.8 3.3 73% 76.28 1015.0
20 01:53 SW 6 16.09 Fair CLR 10.6 2.2 56% 76.28 1014.7
20 00:53 Calm 16.09 Fair CLR 10 2.8 61% 76.28 1014.8
19 23:53 S 7 16.09 Fair CLR 8.9 2.8 66% 8 76.25 1015.1
19 22:53 SW 6 16.09 Fair CLR 11.7 2.2 27.8 11.7 52% 76.25 1014.7
19 21:53 W 7 16.09 Fair CLR 13.9 4.4 53% 76.23 1014.5
19 20:53 SW 6 16.09 Fair CLR 17.2 4.4 43% 76.17 1014.0
19 19:53 Calm 16.09 Fair CLR 23.3 0 21% 76.15 1013.4
19 18:53 Calm 16.09 Fair CLR 25.6 -3.9 14% 25 76.12 1013.3
19 17:53 SE 11 16.09 Fair CLR 26.7 -3.9 13% 26 76.15 1013.9
19 16:53 Calm 16.09 Fair CLR 27.2 -2.8 27.8 22.2 14% 26 76.17 1014.2
19 15:53 SW 9 G 30 16.09 Fair CLR 25.6 -4.4 13% 25 76.17 1014.3
19 14:53 SE 19 G 30 16.09 Fair CLR 27.2 -4.4 12% 26 76.2 1014.4
19 13:53 SE 15 16.09 Fair CLR 26.7 -2.2 15% 26 76.23 1014.8
19 12:53 Vrbl 7 16.09 A Few Clouds FEW095 26.1 -1.7 16% 25 76.28 1015.1
19 11:53 Vrbl 6 16.09 Fair CLR 24.4 0.6 21% 25 76.3 1015.5
19 10:53 Vrbl 6 16.09 Fair CLR 22.2 2.2 22.2 2.2 27% 76.33 1016.2
19 09:53 Calm 16.09 Fair CLR 18.9 5 40% 76.35 1016.9
19 08:53 Vrbl 6 16.09 Fair CLR 15 3.9 48% 76.38 1017.2
19 07:53 W 6 16.09 Fair CLR 11.7 3.9 59% 76.38 1017.1
19 06:53 NW 6 16.09 Fair CLR 7.8 3.3 73% 76.35 1017.0
19 05:53 Calm 16.09 Fair CLR 3.3 1.1 86% 76.33 1016.9
19 04:53 Calm 12.87 Fair CLR 2.2 0 10 2.2 86% 76.3 1016.9
19 03:53 Calm 16.09 Fair CLR 3.3 0.6 83% 76.28 1016.3
19 02:53 Calm 16.09 Fair CLR 3.3 1.1 86% 76.28 1016.3
19 01:53 Calm 16.09 Fair CLR 3.9 1.7 86% 76.28 1016.3
19 00:53 W 6 16.09 Fair CLR 8.3 3.3 71% 76.25 1015.6
18 23:53 S 6 16.09 Fair CLR 8.3 3.3 71% 76.25 1015.7
18 22:53 W 9 16.09 Fair CLR 10 3.9 22.8 10 66% 9 76.23 1015.5
18 21:53 W 11 16.09 Fair CLR 10.6 3.9 64% 76.2 1015.0
18 20:53 W 7 16.09 A Few Clouds FEW095 13.3 3.9 53% 76.15 1014.4
18 19:53 N 6 16.09 A Few Clouds FEW095 16.7 1.7 37% 76.1 1013.8
18 18:53 SE 7 16.09 A Few Clouds FEW120 19.4 0 27% 76.07 1013.2
18 17:53 S 11 16.09 Fair CLR 22.2 -1.1 21% 76.07 1013.6
18 16:53 S 17 16.09 A Few Clouds FEW120 21.1 -0.6 22.8 15 23% 76.1 1013.9
18 15:53 S 9 14.48 A Few Clouds FEW110 21.7 -0.6 23% 76.12 1014.1
18 14:53 Vrbl 6 16.09 A Few Clouds FEW100 20 -1.1 24% 76.15 1014.5
18 13:53 E 9 16.09 Fair CLR 19.4 0 27% 76.2 1015.0
18 12:53 E 13 16.09 Fair CLR 20 1.7 30% 76.23 1015.2
18 11:53 Vrbl 11 16.09 Fair CLR 18.9 2.2 33% 76.25 1015.7
Date Time (pdt) Wind (kph) Vis. (km) Weather Sky Cond. Air Dwpt Max. Min. Relative Humidity Wind Chill (°C) Heat Index (°C) altimeter (cm) sea level (mb) 1 hr 3 hr 6 hr
6 hour
Temperature (ºC) Pressure Precipitation (cm)